This demonstration page uses our WeatherBlox Daily Observations layout. Learn more.

40.92945, -100.16068

Hourly Observations for May 17, 2016

Temp ( °F °C ) Dew Point ( °F °C ) Humidity (%) Winds ( mph kmh ) Pressure ( in mb ) Visibility ( mi km ) Precip ( " mm )
12:15 am 00:15 Cloudy 47 8.5 44 6.7 89 89 NNE 8 13 30.18 1022 10 16.0934 N/A
12:35 am 00:35 Cloudy 47 8.5 44 6.6 88 88 NNE 7 11 30.18 1022 10 16.0934 N/A
12:55 am 00:55 Cloudy 47 8.5 44 6.5 87 87 N 8 13 30.18 1022 10 16.0934 N/A
1:15 am 01:15 Cloudy 47 8.5 44 6.5 87 87 N 8 13 30.18 1022 10 16.0934 N/A
1:35 am 01:35 Cloudy 47 8.2 44 6.5 89 89 N 6 9 30.21 1023 10 16.0934 N/A
1:55 am 01:55 Cloudy 46 8 43 6.3 89 89 NNE 6 9 30.21 1023 10 16.0934 N/A
2:15 am 02:15 Cloudy 46 7.6 43 6 90 90 NNE 7 11 30.21 1023 10 16.0934 N/A
2:35 am 02:35 Cloudy 46 7.7 43 6 89 89 NNE 8 13 30.21 1023 10 16.0934 N/A
2:55 am 02:55 Cloudy 45 7.4 42 5.8 90 90 N 7 11 30.24 1024 10 16.0934 N/A
3:15 am 03:15 Mostly Cloudy 44 6.5 41 5.1 91 91 N 8 13 30.24 1024 10 16.0934 N/A
3:35 am 03:35 Partly Cloudy 42 5.7 40 4.5 92 92 NNE 8 13 30.24 1024 10 16.0934 N/A
3:55 am 03:55 Clear 41 5.2 39 4 92 92 N 8 13 30.27 1025 10 16.0934 N/A
4:15 am 04:15 Clear 41 5 39 3.8 92 92 N 6 9 30.27 1025 10 16.0934 N/A
4:35 am 04:35 Clear 40 4.6 38 3.5 93 93 N 6 9 30.27 1025 10 16.0934 N/A
4:55 am 04:55 Clear 39 4.1 38 3.1 93 93 N 6 9 30.27 1025 10 16.0934 N/A
5:15 am 05:15 Clear 39 4 37 3 93 93 N 7 11 30.27 1025 10 16.0934 N/A
5:35 am 05:35 Clear 39 3.7 37 2.7 93 93 N 7 11 30.3 1026 10 16.0934 N/A
5:55 am 05:55 Clear 38 3.2 36 2.2 93 93 N 6 9 30.3 1026 10 16.0934 N/A
6:15 am 06:15 Clear 37 2.9 36 2 94 94 NNW 6 9 30.3 1026 7 11.26538 N/A
6:35 am 06:35 Sunny with Mist and Fog 36 2.3 35 1.4 94 94 NW 5 7 30.33 1027 5 8.0467 N/A
6:55 am 06:55 Sunny with Mist and Fog 37 2.5 35 1.5 93 93 Calm 30.36 1028 5 8.0467 0 0
7:15 am 07:15 Sunny 37 2.5 35 1.7 95 95 WNW 5 7 30.36 1028 7 11.26538 N/A
7:35 am 07:35 Sunny 38 3.2 36 2.3 94 94 W 3 6 30.33 1027 7 11.26538 N/A
7:55 am 07:55 Sunny 39 4 37 3 93 93 WNW 5 7 30.33 1027 10 16.0934 N/A
8:15 am 08:15 Sunny 40 4.7 39 3.7 93 93 WNW 5 7 30.33 1027 10 16.0934 N/A
8:35 am 08:35 Sunny 43 5.9 41 4.8 93 93 NW 5 7 30.33 1027 10 16.0934 N/A
8:55 am 08:55 Sunny 46 7.6 42 5.5 87 87 NNW 6 9 30.33 1027 10 16.0934 N/A
9:15 am 09:15 Sunny 48 9 43 5.9 81 81 NNW 5 7 30.33 1027 10 16.0934 N/A
9:35 am 09:35 Sunny 51 10.8 45 7.2 79 79 Calm 30.3 1026 7 11.26538 N/A
9:55 am 09:55 Sunny 55 13 46 7.5 69 69 NNE 9 15 30.27 1025 10 16.0934 N/A
10:15 am 10:15 Sunny 54 12.1 45 7 71 71 NNE 7 11 30.3 1026 10 16.0934 N/A
10:35 am 10:35 Sunny 55 12.8 45 7.2 69 69 NE 9 15 30.27 1025 10 16.0934 N/A
10:55 am 10:55 Sunny 58 14.5 46 7.6 64 64 NE 9 15 30.27 1025 10 16.0934 N/A
11:15 am 11:15 Sunny 58 14.6 46 7.6 63 63 ENE 8 13 30.27 1025 10 16.0934 N/A
11:35 am 11:35 Sunny 58 14.4 46 7.6 64 64 NNE 9 15 30.27 1025 10 16.0934 N/A
11:55 am 11:55 Sunny 58 14.6 45 7.1 61 61 NNE 8 13 30.27 1025 10 16.0934 N/A
12:15 pm 12:15 Sunny 59 15.1 45 7.4 60 60 NE 6 9 30.27 1025 10 16.0934 N/A
12:35 pm 12:35 Sunny 60 15.7 45 7.2 57 57 ENE 6 9 30.27 1025 10 16.0934 N/A
12:55 pm 12:55 Mostly Cloudy 60 15.8 45 7 56 56 ENE 9 15 30.27 1025 10 16.0934 N/A
1:15 pm 13:15 Cloudy 60 15.8 45 7.3 57 57 NNE 7 11 30.21 1023 10 16.0934 N/A
1:35 pm 13:35 Cloudy 61 16.2 44 6.7 54 54 NE 6 9 30.21 1023 10 16.0934 N/A
1:55 pm 13:55 Mostly Cloudy 62 16.8 45 7 53 53 ENE 9 15 30.21 1023 10 16.0934 N/A
2:15 pm 14:15 Mostly Cloudy 61 16.3 42 5.7 50 50 NE 6 9 30.21 1023 10 16.0934 N/A
2:35 pm 14:35 Partly Cloudy 63 17.1 40 4.3 43 43 NNE 3 6 30.21 1023 10 16.0934 N/A
2:55 pm 14:55 Partly Cloudy 64 18 44 6.8 48 48 NE 8 13 30.21 1023 10 16.0934 N/A
3:15 pm 15:15 Mostly Cloudy 63 17.2 43 6 48 48 NE 10 17 30.21 1023 10 16.0934 N/A
3:35 pm 15:35 Mostly Cloudy 62 16.8 41 4.9 46 46 N 5 7 30.21 1023 10 16.0934 N/A
3:55 pm 15:55 Mostly Cloudy 63 17.3 43 6 48 48 NNE 9 15 30.18 1022 10 16.0934 N/A
4:15 pm 16:15 Mostly Cloudy 66 18.8 41 4.8 40 40 N 9 15 30.15 1021 10 16.0934 N/A
4:35 pm 16:35 Partly Cloudy 65 18.3 40 4.4 40 40 ENE 7 11 30.18 1022 10 16.0934 N/A
4:55 pm 16:55 Partly Cloudy 65 18.1 41 5.2 43 43 N 7 11 30.18 1022 10 16.0934 N/A
5:15 pm 17:15 Mostly Cloudy 65 18.6 42 5.7 43 43 ENE 9 15 30.15 1021 10 16.0934 N/A
5:35 pm 17:35 Partly Cloudy 62 16.5 39 3.9 43 43 NE 8 13 30.15 1021 10 16.0934 N/A
5:55 pm 17:55 Partly Cloudy 65 18.1 40 4.7 41 41 NNE 8 13 30.15 1021 10 16.0934 N/A
6:15 pm 18:15 Mostly Cloudy 65 18.3 41 5.2 42 42 NE 9 15 30.12 1020 10 16.0934 N/A
6:35 pm 18:35 Partly Cloudy 65 18.1 39 3.7 39 39 NNE 10 17 30.15 1021 10 16.0934 N/A
6:55 pm 18:55 Partly Cloudy 65 18.1 41 4.9 42 42 NE 12 19 30.15 1021 10 16.0934 N/A
7:15 pm 19:15 Partly Cloudy 63 17.1 42 5.6 47 47 ENE 8 13 30.15 1021 10 16.0934 N/A
7:35 pm 19:35 Sunny 62 16.4 43 6 50 50 NE 8 13 30.15 1021 10 16.0934 N/A
7:55 pm 19:55 Sunny 60 15.7 42 5.4 51 51 ENE 8 13 30.15 1021 10 16.0934 N/A
8:15 pm 20:15 Sunny 57 14.1 44 6.5 60 60 ENE 6 9 30.21 1023 10 16.0934 N/A
8:35 pm 20:35 Sunny 55 13 44 6.4 64 64 E 6 9 30.21 1023 10 16.0934 N/A
8:55 pm 20:55 Partly Cloudy 57 14.1 40 4.6 53 53 E 3 6 30.21 1023 10 16.0934 N/A
9:15 pm 21:15 Partly Cloudy 56 13.4 40 4.7 56 56 E 5 7 30.21 1023 10 16.0934 N/A
9:35 pm 21:35 Clear 54 12.3 40 4.6 60 60 E 5 7 30.21 1023 10 16.0934 N/A
9:55 pm 21:55 Partly Cloudy 54 12.1 40 4.6 60 60 E 5 7 30.27 1025 10 16.0934 N/A
10:15 pm 22:15 Partly Cloudy 51 10.3 41 4.9 69 69 E 5 7 30.27 1025 10 16.0934 N/A
10:35 pm 22:35 Mostly Cloudy 50 9.9 41 5.2 73 73 E 3 6 30.27 1025 10 16.0934 N/A
10:55 pm 22:55 Mostly Cloudy 51 10.3 42 5.7 73 73 E 3 6 30.27 1025 10 16.0934 N/A
11:15 pm 23:15 Mostly Cloudy 51 10.5 42 5.5 71 71 ENE 3 6 30.27 1025 10 16.0934 N/A
11:35 pm 23:35 Partly Cloudy 49 9.5 42 5.4 76 76 ENE 3 6 30.27 1025 10 16.0934 N/A
11:55 pm 23:55 Clear 47 8.5 40 4.5 76 76 NE 5 7 30.3 1026 10 16.0934 N/A

Powered by AerisWeather